Location: Terschelling
(53.4100°N, 5.3500°E)
Time: 12:32:47
(UTC+02:00)

BlueWalker 3 - Visible Passes

Search period start: 28 May 2023 00:00
Search period end: 07 June 2023 00:00
Orbit: 495 x 512 km, 53.2° (Epoch: 27 May)

Date Brightness Start Highest point End Pass type
(mag) Time Alt. Az. Time Alt. Az. Time Alt. Az.
28 May 2.2 00:07:58 10° SW 00:11:39 43° SSE 00:15:21 10° E visible
28 May 1.8 01:46:08 10° W 01:50:01 86° S 01:53:56 10° E visible
28 May 1.8 03:24:40 10° W 03:28:34 73° SSW 03:32:27 10° ESE visible
28 May 2.2 23:47:38 10° SW 23:51:19 44° SSE 23:55:01 10° E visible
29 May 1.8 01:25:49 10° W 01:29:42 86° S 01:33:37 10° E visible
29 May 1.8 03:04:21 10° W 03:08:14 72° SSW 03:12:08 10° ESE visible
29 May 2.2 23:27:17 10° SW 23:30:59 44° SSE 23:34:42 10° E visible
30 May 1.8 01:05:29 10° W 01:09:22 87° S 01:13:17 10° E visible
30 May 1.8 02:44:01 10° W 02:47:54 71° SSW 02:51:48 10° ESE visible
30 May 2.9 04:22:45 10° W 04:26:04 27° SW 04:29:23 10° SSE visible
30 May 2.2 23:06:57 10° SW 23:10:38 45° SSE 23:14:22 10° E visible
31 May 1.9 00:45:09 10° W 00:49:02 87° S 00:52:56 10° E visible
31 May 1.8 02:23:41 10° W 02:27:33 70° SSW 02:31:27 10° ESE visible
31 May 2.9 04:02:26 10° W 04:05:43 26° SW 04:09:01 10° SSE visible
31 May 2.2 22:46:36 10° SW 22:50:17 46° SSE 22:54:01 10° E visible
01 Jun 1.9 00:24:48 10° W 00:28:41 87° S 00:32:35 10° E visible
01 Jun 1.8 02:03:21 10° W 02:07:13 70° SSW 02:11:06 10° ESE visible
01 Jun 2.9 03:42:06 10° W 03:45:21 26° SW 03:48:38 10° SSE visible
02 Jun 1.9 00:04:28 10° W 00:08:20 87° S 00:12:14 10° E visible
02 Jun 1.8 01:43:00 10° W 01:46:52 69° SSW 01:50:44 10° ESE visible
02 Jun 3.0 03:21:45 10° W 03:25:00 25° SW 03:28:14 10° SSE visible
02 Jun 1.9 23:44:06 10° W 23:47:59 88° S 23:51:53 10° E visible
03 Jun 1.8 01:22:38 10° W 01:26:30 68° SSW 01:30:23 10° ESE visible
03 Jun 3.0 03:01:25 10° W 03:04:38 25° SW 03:07:09 14° SSE visible
03 Jun 1.9 23:23:45 10° W 23:27:38 88° S 23:31:31 10° E visible
04 Jun 1.8 01:02:18 10° W 01:06:07 67° SSW 01:10:00 10° ESE visible
04 Jun 3.0 02:41:05 10° W 02:44:16 24° SW 02:45:20 21° S visible
04 Jun 1.9 23:03:23 10° W 23:07:15 88° S 23:11:09 10° E visible
05 Jun 1.9 00:41:56 10° W 00:45:46 67° SSW 00:49:38 10° ESE visible
05 Jun 3.1 02:20:43 10° W 02:23:52 24° SW 02:24:26 23° SSW visible
06 Jun 1.9 00:21:33 10° W 00:25:23 66° SSW 00:29:14 10° ESE visible
06 Jun 3.1 02:00:22 10° W 02:03:29 23° SW 02:03:54 23° SSW visible
